Regional Weather Roundup
Issued by NWS Boston, MA

Home | Current Version | Previous Version | Text Only | Print | Product List | Glossary On
Versions: 1 2 3 4 5 6 7 8 9 10 11 12 13 14 15 16 17 18 19 20 21 22 23 24 25 26 27
000
ASUS41 KBOX 210410
RWRBOX

REGIONAL WEATHER ROUNDUP
NATIONAL WEATHER SERVICE TAUNTON MA
1200 AM EDT FRI JUL 21 2017

NOTE:  "FAIR" INDICATES FEW OR NO CLOUDS BELOW 12,000 FEET WITH NO
SIGNIFICANT WEATHER AND/OR OBSTRUCTIONS TO VISIBILITY.

MAZALL-210500-
EASTERN MASSACHUSETTS

CITY           SKY/WX    TMP DP  RH WIND       PRES   REMARKS
BOSTON         CLEAR     75  67  76 S5        29.83F
BEVERLY        MOCLDY    72  68  87 CALM      29.82F
LAWRENCE       PTCLDY    75  64  68 CALM      29.85S
BEDFORD        CLEAR     72  67  84 N3        29.82F
BLUE HILL        N/A     76  66  71 NW7       29.84F
NORWOOD        CLEAR     72  70  93 S3        29.82F
MARSHFIELD     CLOUDY    77  70  78 CALM      29.82F
PLYMOUTH       CLOUDY    77  70  79 CALM      29.84S
TAUNTON        CLEAR     74  71  91 SW3       29.83S FOG
NEW BEDFORD    PTCLDY    74  71  91 CALM      29.83S
$$

MAZALL-210500-
CAPE COD AND THE ISLANDS

CITY           SKY/WX    TMP DP  RH WIND       PRES   REMARKS
FALMOUTH       CLOUDY    75  75 100 SW7G13    29.85S
HYANNIS        PTCLDY    77  74  90 SW8       29.82F
CHATHAM        CLOUDY    76  75  97 MISG      29.84F FOG
PROVINCETOWN   CLOUDY    73  68  84 CALM      29.83F
NANTUCKET      CLOUDY    73  73 100 SW10      29.84F FOG
MARTHAS VNYRD  CLOUDY    77  74  90 W7        29.84F
$$

MAZALL-210500-
CENTRAL AND WESTERN MASSACHUSETTS

CITY           SKY/WX    TMP DP  RH WIND       PRES   REMARKS
WORCESTER      PTCLDY    72  61  68 W7        29.88F
FITCHBURG      CLEAR     76  63  64 CALM      29.85F
ORANGE         CLEAR     67  64  90 CALM      29.88S
SPRINGFIELD    CLEAR     69  67  93 CALM      29.85S
WESTFIELD      CLEAR     71  67  87 NE5       29.86S
NORTH ADAMS    PTCLDY    64  61  90 CALM      29.91R
PITTSFIELD     PTCLDY    65  61  87 CALM      29.91S
$$

RIZALL-210500-
RHODE ISLAND

CITY           SKY/WX    TMP DP  RH WIND       PRES   REMARKS
PROVIDENCE     CLEAR     77  74  90 N7        29.84S
NEWPORT        PTCLDY    75  74  96 CALM      29.84S FOG
BLOCK ISLAND   MOCLDY    74  72  93 SW9       29.85S FOG
WESTERLY       CLEAR     75  73  93 CALM      29.84F
$$

CTZALL-210500-
CONNECTICUT

CITY           SKY/WX    TMP DP  RH WIND       PRES   REMARKS
BRADLEY INTL   PTCLDY    73  70  90 SW3       29.86S
HARTFORD       CLEAR     75  71  87 CALM      29.85S
BRIDGEPORT     LGT RAIN  79  66  64 NW13      29.85R
DANBURY        CLEAR     71  68  90 SW5       29.90R
GROTON         CLEAR     75  72  90 S3        29.83S
NEW HAVEN      CLEAR     80  66  62 NW8       29.86R
CHESTER        FAIR      77  70  78 CALM      29.87S
MERIDEN        CLEAR     72  69  90 CALM      29.86R
WILLIMANTIC    CLEAR     73  71  93 CALM      29.86F
OXFORD         CLEAR     73  63  68 N3        29.90R
$$

MEZ002-015-021-024-NHZ003-005-008-011-012-014-VTZ005-008-210500-
NORTHERN NEW ENGLAND

CITY           SKY/WX    TMP DP  RH WIND       PRES   REMARKS
PORTLAND ME    PTCLDY    70  66  87 W6        29.81S
BANGOR ME      CLOUDY    67  61  81 NW3       29.80S
CONCORD NH     CLEAR     69  65  86 CALM      29.84S
MANCHESTER NH  PTCLDY    74  61  63 CALM      29.82F
NASHUA NH      CLEAR     72  65  78 CALM      29.84S
PORTSMOUTH NH  PTCLDY    68  67  96 SW3       29.80F
JAFFREY NH     CLEAR     68  64  87 CALM      29.89F
KEENE NH       CLEAR     64  63  96 CALM      29.88S
BURLINGTON VT  CLEAR     66  62  87 CALM      29.86S
MT. WASHINGTON FOG       50  50 100 NW33        N/A  VSB 1/16
$$

NYZ052-076-210500-
EASTERN NEW YORK

CITY           SKY/WX    TMP DP  RH WIND       PRES   REMARKS
ALBANY         PTCLDY    70  63  78 NW6       29.89R
NEW YORK CITY  PTCLDY    80  69  69 NW6       29.87S
$$

ANZALL-210500-
MARINE OBSERVATIONS

STATION/POSITION TIME  TEMP    WIND        PRES    VSBY  WAVE
                       AIR SEA DIR/SP/G                  HT/PER
                 (UTC) (F)     (DEG/KT/KT) (MB)    (MI)  (FT/S)
BOSTON BUOY      0350   75 71  230/  6/  6 1009.5S         1/12
BUZZARDS BAY     0300   73     260/  8/  8 1010.8F
NANTUCKET SOUND  0350      72              1010.1R         1
MASS BAY-STELLWA 0304   70 64  230/  4/  4 1009.0F         1/ 5
ISLE OF SHOALS   0400   75     240/ 10/ 10 1009.1F
S OF BLOCK IS    0355      73                N/A           3/ 7
$$

......................KEY.........................
  SKY/WX - SKY CONDITION/PRESENT WEATHER
  TMP    - TEMPERATURE IN FAHRENHEIT
  DWPT   - DEWPOINT IN FAHRENHEIT
  RH     - RELATIVE HUMIDITY IN PERCENT
  WIND   - DIRECTION AND SPEED IN MPH
  PRES   - MEAN SEA LEVEL PRESSURE IN INCHES OF HG
  WCI    - WIND CHILL INDEX
  VSB    - VISIBILITY IN MILES
  HX     - HEAT INDEX
  TC     - TEMPERATURE IN CELSIUS
  VRB    - VARIABLE WIND DIRECTION
  N/A    - NOT AVAILABLE




USA.gov is the U.S. government's official web portal to all federal, state and local government web resources and services.